[[{"header":{"parameterUnit":"m.s-1","parameterCategory":1,"la1":30.2991,"la2":30.254,"lo1":-89.0895,"lo2":-89.0444,"dy":0.0017,"dx":0.0017,"nx":28,"ny":28,"refTime":"2025-03-23T09:00:00:Z","depth":0,"parameterNumber":2,"parameterNumberName":"U-component_of_WINDS"},"data":[0,0,0,0,0,0,0,0,0,0,0,0,0,0,0,0,0,0,0,0,0,0,0,0,0,0,0,0,0,0,0,0,0,0,0,0,0,0,0,0,0,0,0,0,0,0,0,0,0,0,0,0,0,0,0,0,0,0,-3.0271,-3.0272,0,-3.0321,-3.0322,-3.0322,-3.033,-3.033,-3.0329,-3.0329,-3.0379,-3.0381,-3.0383,0,0,0,0,0,0,0,0,0,0,0,0,0,-3.0184,-3.0186,-3.0271,-3.0272,-3.0273,-3.0321,-3.0322,-3.0322,-3.033,-3.033,-3.0329,-3.0329,-3.0379,-3.0381,-3.0383,0,0,0,0,0,0,0,0,0,0,0,0,0,-3.0227,-3.0186,-3.0271,-3.0282,-3.0284,-3.0321,-3.0322,-3.0322,-3.033,-3.033,-3.0329,-3.0329,-3.0378,-3.038,-3.0383,-3.0412,0,0,-3.0391,-3.0392,0,0,0,0,0,0,0,0,-3.0224,-3.023,-3.028,-3.0282,-3.0283,-3.0319,-3.0309,-3.0352,-3.0331,-3.0313,-3.0329,-3.0328,-3.036,-3.0364,-3.0374,-3.0414,-3.0416,-3.0391,-3.0393,-3.0394,-3.0395,0,0,0,0,0,0,0,-3.0221,-3.0228,-3.0291,-3.0281,-3.0283,-3.0285,-3.0291,-3.0317,-3.0339,-3.0314,-3.0315,-3.0321,-3.036,-3.0372,-3.0376,-3.0417,-3.0391,-3.0393,-3.0395,-3.0396,-3.0484,-3.0485,0,0,0,0,0,0,-3.0216,-3.0225,-3.0289,-3.0292,-3.0252,-3.0287,-3.0293,-3.0308,-3.0339,-3.0343,-3.0321,-3.0321,-3.0368,-3.0373,-3.0377,-3.0413,-3.0394,-3.0396,-3.0398,-3.0483,-3.0484,-3.0485,0,0,0,0,0,0,-3.0214,-3.0222,-3.0287,-3.0259,-3.0268,-3.029,-3.0306,-3.0309,-3.0321,-3.0344,-3.0348,-3.0329,-3.0367,-3.0374,-3.0404,-3.0415,-3.0398,-3.04,-3.0483,-3.0484,-3.0485,-3.0485,0,0,0,0,0,0,-3.0212,-3.0221,-3.0232,-3.0259,-3.0269,-3.0312,-3.0307,-3.0311,-3.0325,-3.0325,-3.0352,-3.0356,-3.0367,-3.04,-3.0406,-3.0418,-3.0402,-3.0482,-3.0483,-3.0484,-3.0484,-3.0486,-3.0488,0,0,0,0,0,-3.0209,-3.023,-3.0233,-3.024,-3.0283,-3.0313,-3.0319,-3.0331,-3.0326,-3.0338,-3.0353,-3.0355,-3.0413,-3.0403,-3.041,-3.0423,-3.0481,-3.0483,-3.0484,-3.0483,-3.0486,-3.0488,0,0,0,0,0,0,-3.0203,-3.0234,-3.0237,-3.0268,-3.0288,-3.0314,-3.0329,-3.0333,-3.0355,-3.0354,-3.0369,-3.0375,-3.0404,-3.0417,-3.0404,-3.0453,-3.0447,-3.045,-3.0443,-3.0446,-3.0448,-3.0443,-3.0404,0,0,0,0,0,-3.0205,-3.0227,-3.0253,-3.0277,-3.0287,-3.0306,-3.032,-3.0328,-3.0349,-3.0358,-3.0375,-3.0396,-3.0419,-3.0433,-3.0456,-3.0487,-3.0493,-3.05,-3.0502,-3.0503,-3.0505,-3.0523,-3.0526,-3.0491,-3.0491,-3.0491,0,0,-3.021,-3.023,-3.0242,-3.0277,-3.0293,-3.0315,-3.0313,-3.0337,-3.0353,-3.0361,-3.039,-3.0404,-3.0428,-3.0459,-3.0473,-3.0471,-3.0517,-3.0505,-3.0506,-3.0508,-3.0525,-3.0528,-3.0531,-3.0492,-3.0492,-3.0492,0,0,-3.023,-3.0247,-3.027,-3.0287,-3.0312,-3.0325,-3.033,-3.0357,-3.0366,-3.0396,-3.0403,-3.0423,-3.0462,-3.0479,-3.0493,-3.0521,-3.0524,-3.0528,-3.0537,-3.0555,-3.0557,-3.056,-3.057,-3.0573,-3.0531,-3.0531,-3.0531,0,-3.0233,-3.0266,-3.0281,-3.0304,-3.0319,-3.0328,-3.0351,-3.0367,-3.0398,-3.0408,-3.0405,-3.0455,-3.0472,-3.0507,-3.0514,-3.0525,-3.0532,-3.0524,-3.0556,-3.0559,-3.0561,-3.057,-3.0574,-3.0531,-3.0531,-3.0531,-3.0531,0,-3.0268,-3.0292,-3.0307,-3.0337,-3.0354,-3.0377,-3.0395,-3.0411,-3.0418,-3.0432,-3.0462,-3.0483,-3.051,-3.0519,-3.0526,-3.0556,-3.0553,-3.0553,-3.0546,-3.0564,-3.0573,-3.0577,-3.0531,-3.0531,-3.0531,-3.0531,0,0,-3.0284,-3.0323,-3.0328,-3.0342,-3.0372,-3.039,-3.0415,-3.0441,-3.0454,-3.0476,-3.0497,-3.053,-3.0531,-3.0546,-3.0556,-3.0571,-3.0592,-3.0569,-3.057,-3.0572,-3.0625,-3.0624,-3.0628,-3.0595,-3.0596,-3.0597,-3.0623,0,-3.0307,-3.0349,-3.0364,-3.0399,-3.0421,-3.0431,-3.0452,-3.0473,-3.0486,-3.0507,-3.0522,-3.0546,-3.0545,-3.0554,-3.057,-3.0586,-3.0603,-3.0585,-3.0614,-3.0615,-3.0606,-3.0633,-3.0632,-3.0656,-3.0627,-3.0628,-3.0628,0,-3.0338,-3.0361,-3.0399,-3.0426,-3.0436,-3.0454,-3.0481,-3.0501,-3.0525,-3.0534,-3.0552,-3.0561,-3.0587,-3.058,-3.0616,-3.0603,-3.0616,-3.0626,-3.0628,-3.063,-3.0621,-3.0635,-3.0664,-3.0667,-3.0634,-3.0633,-3.0633,0,-3.0345,-3.0386,-3.0413,-3.0425,-3.0458,-3.0471,-3.0485,-3.0509,-3.0524,-3.0548,-3.0558,-3.0584,-3.0598,-3.0618,-3.0633,-3.0627,-3.0668,-3.0663,-3.0676,-3.0675,-3.0682,-3.0681,-3.0713,-3.0693,-3.0693,-3.0693,-3.0693,0,-3.0368,-3.0391,-3.0417,-3.0434,-3.0459,-3.0476,-3.0501,-3.0517,-3.0538,-3.0558,-3.0569,-3.0588,-3.0608,-3.063,-3.0642,-3.067,-3.0676,-3.0684,-3.0687,-3.0682,-3.0681,-3.069,-3.0688,-3.0694,-3.0694,-3.0693,-3.0693,0,-3.038,-3.0398,-3.0429,-3.0458,-3.0466,-3.0484,-3.0509,-3.0526,-3.0541,-3.0566,-3.0573,-3.0597,-3.0623,-3.0641,-3.0675,-3.0683,-3.0713,-3.0716,-3.0705,-3.0706,-3.0718,-3.0716,-3.0754,-3.076,-3.0738,-3.0738,-3.0738,0,-3.0392,-3.041,-3.0441,-3.0456,-3.047,-3.0493,-3.051,-3.0528,-3.0544,-3.0573,-3.0587,-3.0614,-3.0636,-3.0678,-3.0698,-3.0724,-3.0727,-3.0739,-3.0731,-3.0726,-3.0726,-3.0725,-3.0726,-3.074,-3.074,-3.074,-3.074,0,-3.0413,-3.0422,-3.0445,-3.0471,-3.049,-3.0511,-3.0533,-3.0544,-3.0566,-3.0584,-3.0611,-3.0629,-3.0663,-3.069,-3.0718,-3.0734,-3.074,-3.0743,-3.0747,-3.0742,-3.0734,-3.0738,-3.0707,-3.0741,-3.0741,-3.0741,-3.0741,-3.0741,-3.0425,-3.0442,-3.0466,-3.0491,-3.051,-3.053,-3.0548,-3.0565,-3.0588,-3.0617,-3.0627,-3.0655,-3.068,-3.0719,-3.0734,-3.0757,-3.0756,-3.0762,-3.0764,-3.0765,-3.0764,-3.0732,-3.0762,-3.0762,-3.0762,-3.0762,-3.0762,0,-3.0446,-3.0463,-3.0486,-3.0516,-3.0536,-3.0542,-3.0566,-3.0583,-3.0607,-3.063,-3.0652,-3.0683,-3.071,-3.0732,-3.076,-3.0773,-3.0777,-3.078,-3.0778,-3.0782,-3.0764,-3.0757,-3.0776,-3.0776,-3.0776,-3.0776,-3.0776,-3.0776,-3.0459,-3.0487,-3.0499,-3.0536,-3.0553,-3.058,-3.0594,-3.0613,-3.0631,-3.0665,-3.0687,-3.0702,-3.0725,-3.0754,-3.0779,-3.0785,-3.0794,-3.0796,-3.0802,-3.0785,-3.0783,-3.0781,-3.0775,-3.0798,-3.0798,-3.0819,-3.0819,-3.0819]},{"header":{"parameterUnit":"m.s-1","parameterCategory":1,"la1":30.2991,"la2":30.254,"lo1":-89.0895,"lo2":-89.0444,"dy":0.0017,"dx":0.0017,"nx":28,"ny":28,"refTime":"2025-03-23T09:00:00:Z","depth":0,"parameterNumber":3,"parameterNumberName":"V-component_of_WINDS"},"data":[0,0,0,0,0,0,0,0,0,0,0,0,0,0,0,0,0,0,0,0,0,0,0,0,0,0,0,0,0,0,0,0,0,0,0,0,0,0,0,0,0,0,0,0,0,0,0,0,0,0,0,0,0,0,0,0,0,0,5.9536,5.9536,0,5.9548,5.9548,5.9548,5.9527,5.9527,5.9526,5.9525,5.9532,5.9533,5.9534,0,0,0,0,0,0,0,0,0,0,0,0,0,5.9492,5.9493,5.9536,5.9536,5.9536,5.9548,5.9548,5.9548,5.9527,5.9527,5.9526,5.9525,5.9532,5.9533,5.9534,0,0,0,0,0,0,0,0,0,0,0,0,0,5.9508,5.9493,5.9536,5.9527,5.9527,5.9548,5.9548,5.9549,5.9528,5.9527,5.9526,5.9525,5.9532,5.9533,5.9534,5.9563,0,0,5.9538,5.9539,0,0,0,0,0,0,0,0,5.9507,5.951,5.9529,5.9528,5.9527,5.9535,5.9535,5.9553,5.9528,5.9527,5.9525,5.9524,5.9534,5.9535,5.9539,5.9563,5.9564,5.9538,5.9539,5.954,5.954,0,0,0,0,0,0,0,5.9506,5.9509,5.9541,5.9529,5.9528,5.9522,5.9523,5.9539,5.9536,5.9527,5.9526,5.9528,5.9533,5.9538,5.9539,5.9564,5.9538,5.9539,5.954,5.9541,5.9616,5.9617,0,0,0,0,0,0,5.9507,5.9508,5.954,5.9541,5.9515,5.9524,5.9525,5.9534,5.9536,5.9535,5.9529,5.9527,5.9537,5.9538,5.9539,5.9576,5.954,5.9541,5.9541,5.9614,5.9616,5.9617,0,0,0,0,0,0,5.9506,5.951,5.954,5.9524,5.9528,5.9526,5.9536,5.9534,5.9539,5.9537,5.9536,5.9534,5.9536,5.9538,5.9559,5.9576,5.9541,5.9542,5.9613,5.9615,5.9617,5.9647,0,0,0,0,0,0,5.9505,5.951,5.9521,5.9525,5.9529,5.9559,5.9537,5.9535,5.9542,5.954,5.9542,5.9541,5.9535,5.9557,5.956,5.9577,5.9543,5.9611,5.9614,5.9616,5.9645,5.965,5.9654,0,0,0,0,0,5.9503,5.9527,5.9521,5.9525,5.9543,5.956,5.9562,5.9556,5.9544,5.9555,5.9554,5.9541,5.9573,5.9559,5.9562,5.958,5.961,5.9613,5.9616,5.9642,5.9649,5.9654,0,0,0,0,0,0,5.9522,5.9527,5.9521,5.9547,5.9554,5.9557,5.957,5.9563,5.9571,5.9569,5.9559,5.956,5.9583,5.9583,5.9567,5.961,5.959,5.9593,5.9609,5.9615,5.962,5.9619,5.9544,0,0,0,0,0,5.9529,5.9544,5.9548,5.957,5.9574,5.9572,5.9579,5.9575,5.958,5.9582,5.9583,5.9588,5.96,5.9607,5.9617,5.9645,5.9646,5.9659,5.9663,5.9667,5.9671,5.9688,5.9695,5.9626,5.9626,5.9626,0,0,5.9544,5.9549,5.9558,5.9574,5.9579,5.9594,5.9574,5.959,5.9602,5.9584,5.9605,5.9606,5.9611,5.9637,5.9647,5.9637,5.969,5.9671,5.9674,5.9675,5.9692,5.9698,5.9704,5.9628,5.9628,5.9628,0,0,5.9579,5.9584,5.9605,5.9611,5.962,5.9619,5.9624,5.963,5.9631,5.9652,5.964,5.9653,5.9672,5.9678,5.9683,5.9725,5.9714,5.9728,5.9754,5.9771,5.9777,5.9781,5.9798,5.9805,5.9732,5.9732,5.9732,0,5.9596,5.962,5.9616,5.9635,5.9643,5.9631,5.9653,5.9658,5.9669,5.9675,5.9664,5.9691,5.9693,5.9721,5.9732,5.9735,5.9742,5.9728,5.9776,5.9781,5.9785,5.9802,5.9808,5.9733,5.9733,5.9733,5.9733,0,5.9642,5.9659,5.9675,5.9689,5.9699,5.9719,5.9718,5.9728,5.9723,5.9724,5.9747,5.975,5.9763,5.9769,5.9762,5.9797,5.9791,5.9778,5.9758,5.9794,5.9809,5.9815,5.9736,5.9735,5.9735,5.9734,0,0,5.9686,5.9702,5.9708,5.9716,5.9727,5.974,5.976,5.9775,5.9785,5.9793,5.981,5.9829,5.9819,5.9825,5.982,5.9835,5.9872,5.9821,5.9821,5.9832,5.9912,5.9923,5.993,5.9865,5.9866,5.9867,5.9913,0,5.9723,5.9761,5.976,5.9794,5.9811,5.9802,5.982,5.9828,5.983,5.9844,5.9845,5.986,5.9844,5.9849,5.9863,5.9864,5.9888,5.9861,5.9881,5.9882,5.9882,5.9938,5.9948,5.9991,5.9918,5.9919,5.992,0,5.9771,5.9785,5.9823,5.9835,5.9842,5.9858,5.9874,5.9888,5.9898,5.9898,5.9907,5.9901,5.9921,5.9901,5.993,5.9912,5.9921,5.9923,5.9924,5.9926,5.9904,5.9943,6.0004,6.0011,5.9929,5.9928,5.9928,0,5.9803,5.9831,5.9858,5.9865,5.9879,5.9892,5.9898,5.9907,5.9917,5.993,5.9937,5.9951,5.9959,5.997,5.9968,5.9953,5.9999,5.9977,6.0,6.0,6.001,6.001,6.0075,6.0013,6.0013,6.0013,6.0013,0,5.9845,5.9869,5.9874,5.989,5.9917,5.9916,5.9942,5.9947,5.9956,5.9973,5.9965,5.9981,5.9977,5.9993,5.9991,6.0017,6.0019,6.0021,6.002,6.0022,6.0022,6.0028,6.0025,6.0015,6.0015,6.0014,6.0014,0,5.9885,5.9889,5.9918,5.9931,5.9935,5.9954,5.9965,5.9981,5.9983,6.0006,6.0011,6.0014,6.0033,6.0032,6.0052,6.0051,6.0084,6.0079,6.0082,6.0081,6.0105,6.0103,6.0177,6.0187,6.0118,6.0118,6.0119,0,5.9912,5.9931,5.9947,5.996,5.9968,5.9987,5.9999,5.9999,6.0011,6.0027,6.0041,6.006,6.0075,6.0106,6.011,6.0126,6.0122,6.0147,6.0124,6.0127,6.0125,6.0124,6.0127,6.0151,6.0152,6.0153,6.0153,0,5.996,5.9963,5.9981,6.0002,6.0017,6.0032,6.0046,6.0056,6.0058,6.0073,6.0094,6.0106,6.0129,6.0149,6.0165,6.017,6.0163,6.0161,6.0167,6.017,6.0172,6.0173,6.0095,6.0159,6.0158,6.0158,6.0158,6.0157,5.9996,6.0014,6.003,6.0051,6.0063,6.0077,6.0095,6.0101,6.0119,6.014,6.0139,6.0163,6.0175,6.0197,6.0204,6.0222,6.0213,6.0222,6.0225,6.0227,6.0231,6.0169,6.0225,6.0225,6.0225,6.0225,6.0224,0,6.0046,6.0057,6.0077,6.01,6.0117,6.0111,6.0128,6.0142,6.0165,6.0178,6.0194,6.022,6.024,6.0246,6.0266,6.0279,6.0276,6.0284,6.0284,6.0286,6.0237,6.023,6.0287,6.0287,6.0287,6.0287,6.0287,6.0287,6.0074,6.0105,6.011,6.0148,6.0157,6.0183,6.0194,6.0207,6.0218,6.0249,6.0266,6.0271,6.0282,6.0303,6.0321,6.0323,6.0331,6.0341,6.0341,6.0295,6.0289,6.0283,6.0277,6.0342,6.0342,6.0388,6.0389,6.0389]}]]